www.pogodaiklimat.ru

Погода и климат >> Архив погоды >> Бразилия >> Рондония >> Порту-Велью


ПОГОДА в Порту-Велью

  • Прогноз погоды в Порту-Велью
  • Монитор погоды в Порту-Велью

АРХИВ ПОГОДЫ в Порту-Велью

Время (UTC), дата Ветер
(напр.,м/с)
 
Видим.   Явления Облачность Т
(С)
Тd
(С)
f
(%)
Тe
(С)
Тes
(С)
Комфортность P
(гПа)
Po
(гПа)
Тmin
(С)
Tmax
(С)
R
(мм)
R24
(мм)
S
(см)
22 13.09 0 н/о н/о +31.9 +20.2 50 1008.9 999.1
23 13.09 0 н/о н/о +29.5 +21.1 61 1009.3 999.5
00 14.09 0 н/о н/о +28.9 +21.1 63 1010.1 1000.2
01 14.09 0 н/о н/о +27.9 +21.6 69 1010.9 1001.0
02 14.09 0 н/о н/о +27.1 +22.4 76 1011.4 1001.5
04 14.09 0 н/о н/о +26.9 +21.5 72 1011.3 1001.4
05 14.09 0 н/о н/о +26.5 +21.6 74 1010.7 1000.8
06 14.09 0 н/о н/о +26.0 +21.3 75 1010.4 1000.4
08 14.09 0 н/о н/о +25.7 +21.0 75 1010.6 1000.6
09 14.09 0 н/о н/о +24.7 +21.1 80 1010.6 1000.6
10 14.09 0 н/о н/о +23.9 +21.2 85 1011.3 1001.3
11 14.09 0 н/о н/о +24.6 +21.5 83 1012.4 1002.4
12 14.09 0 н/о н/о +25.9 +20.9 74 1013.1 1003.1
13 14.09 0 н/о н/о +27.7 +21.2 68 1013.7 1003.8
14 14.09 0 н/о н/о +30.2 +20.7 57 1013.9 1004.0
15 14.09 0 н/о н/о +31.7 +20.5 52 1013.5 1003.7
16 14.09 0 н/о н/о +33.3 +20.0 46 1012.2 1002.5
17 14.09 0 н/о н/о +34.6 +20.1 43 1011.0 1001.3
18 14.09 0 н/о н/о +35.2 +20.2 42 1009.6 999.9
19 14.09 0 н/о н/о +35.8 +20.5 41 1008.6 999.0
20 14.09 0 н/о н/о +34.7 +19.9 42 1008.2 998.5
21 14.09 0 н/о н/о +34.8 +19.2 40 1008.4 998.7
22 14.09 0 н/о н/о +33.9 +19.3 42 1008.5 998.8
23 14.09 0 н/о н/о +29.9 +21.7 61 1008.9 999.1
00 15.09 0 н/о н/о +28.7 +22.2 68 1009.9 1000.0
01 15.09 0 н/о н/о +30.2 +22.6 64 1010.8 1001.0
02 15.09 0 н/о н/о +29.5 +22.0 64 1011.0 1001.1
03 15.09 0 н/о н/о +28.6 +21.7 66 1010.8 1000.9
04 15.09 0 н/о н/о +28.0 +20.8 65 1010.8 1000.9
05 15.09 0 н/о н/о +27.1 +21.2 70 1010.3 1000.4
06 15.09 0 н/о н/о +26.7 +20.8 70 1009.8 999.9
08 15.09 0 н/о н/о +26.1 +21.4 75 1009.9 999.9
09 15.09 0 н/о н/о +25.9 +21.4 76 1010.5 1000.5
10 15.09 0 н/о н/о +25.2 +21.1 78 1011.1 1001.1
11 15.09 0 н/о н/о +24.4 +22.1 87 1011.9 1001.9
12 15.09 0 н/о н/о +28.0 +22.1 70 1012.3 1002.4
13 15.09 0 н/о н/о +30.2 +22.1 62 1012.4 1002.6
14 15.09 0 н/о н/о +32.9 +21.9 52 1012.5 1002.7
15 15.09 0 н/о н/о +33.7 +19.9 44 1011.9 1002.2
17 15.09 0 н/о н/о +35.8 +19.1 38 1009.4 999.8
18 15.09 0 н/о н/о +37.3 +17.7 32 1008.1 998.5
20 15.09 0 н/о н/о +37.5 +15.6 27 1006.4 996.8
21 15.09 0 н/о н/о +36.6 +15.2 28 1006.2 996.6
22 15.09 0 н/о н/о +34.1 +17.5 37 1006.6 996.9
23 15.09 0 н/о н/о +30.7 +20.9 56 1007.7 997.9
00 16.09 0 н/о н/о +28.7 +21.9 67 1008.4 998.5
01 16.09 0 н/о н/о +28.1 +21.7 68 1009.3 999.4
02 16.09 0 н/о н/о +27.0 +22.1 75 1010.0 1000.1
03 16.09 0 н/о н/о +26.4 +22.2 78 1010.1 1000.2
04 16.09 0 н/о н/о +26.3 +22.3 79 1009.9 1000.0
05 16.09 0 н/о н/о +25.6 +22.4 83 1009.3 999.3
06 16.09 0 н/о н/о +26.6 +22.3 77 1008.8 998.9
07 16.09 0 н/о н/о +25.9 +21.4 76 1008.7 998.8
08 16.09 0 н/о н/о +24.7 +21.6 83 1009.1 999.1
09 16.09 0 н/о н/о +24.0 +21.6 86 1009.3 999.3
10 16.09 0 н/о н/о +24.4 +22.0 86 1010.0 1000.0
11 16.09 0 н/о н/о +27.1 +21.8 73 1010.5 1000.6
12 16.09 0 н/о н/о +28.4 +21.5 66 1011.1 1001.2
13 16.09 0 н/о н/о +30.5 +21.8 60 1011.6 1001.8
14 16.09 0 н/о н/о +33.0 +22.5 54 1011.9 1002.2
15 16.09 0 н/о н/о +34.4 +21.9 48 1011.8 1002.1
16 16.09 0 н/о н/о +34.6 +21.3 46 1010.9 1001.2
17 16.09 0 н/о н/о +36.8 +21.8 42 1009.6 1000.0
18 16.09 0 н/о н/о +32.1 +20.0 49 1008.9 999.2
19 16.09 0 н/о н/о +29.4 +21.3 62 1007.8 998.0
20 16.09 0 н/о н/о +29.6 +22.5 66 1007.5 997.7
21 16.09 0 н/о н/о +29.6 +21.3 61 1007.4 997.6
22 16.09 0 н/о н/о +28.0 +22.0 70 1007.9 998.0
23 16.09 0 н/о н/о +27.1 +22.0 74 1008.1 998.2
00 17.09 0 н/о н/о +27.1 +21.1 70 1008.8 998.9
01 17.09 0 н/о н/о +25.8 +21.9 79 1009.9 999.9
02 17.09 0 н/о н/о +25.4 +22.3 83 1010.4 1000.4
03 17.09 0 н/о н/о +24.9 +22.3 85 1011.1 1001.1
04 17.09 0 н/о н/о +24.3 +22.2 88 1010.5 1000.5
05 17.09 0 н/о н/о +25.6 +22.1 81 1010.2 1000.2
07 17.09 0 н/о н/о +25.2 +22.4 84 1009.3 999.3
08 17.09 0 н/о н/о +24.1 +21.5 85 1009.4 999.4
09 17.09 0 н/о н/о +24.1 +22.2 89 1009.7 999.7
10 17.09 0 н/о н/о +23.2 +21.5 90 1010.2 1000.1
11 17.09 0 н/о н/о +24.2 +22.5 90 1010.8 1000.8
12 17.09 0 н/о н/о +28.4 +22.3 70 1011.7 1001.8
13 17.09 0 н/о н/о +29.7 +21.8 63 1011.9 1002.0
14 17.09 0 н/о н/о +32.3 +21.7 54 1011.9 1002.1
15 17.09 0 н/о н/о +34.3 +21.5 47 1011.5 1001.8
16 17.09 0 н/о н/о +36.0 +20.7 41 1010.4 1000.8
17 17.09 0 н/о н/о +35.4 +20.5 42 1009.2 999.6
18 17.09 0 н/о н/о +36.4 +20.0 38 1007.7 998.1
19 17.09 0 н/о н/о +34.3 +21.8 48 1006.2 996.5
20 17.09 0 н/о н/о +38.6 +17.5 29 1005.0 995.5 0.4
21 17.09 0 н/о н/о +36.3 +18.3 35 1004.8 995.2
22 17.09 0 н/о н/о +34.5 +18.8 40 1004.7 995.1
23 17.09 0 н/о н/о +32.9 +20.9 49 1006.2 996.5
00 18.09 0 н/о н/о +29.9 +21.9 62 1007.0 997.2
01 18.09 0 н/о н/о +28.0 +22.7 73 1008.0 998.1
02 18.09 0 н/о н/о +27.2 +22.8 77 1008.6 998.7
03 18.09 0 н/о н/о +26.8 +22.9 79 1008.3 998.4
04 18.09 0 н/о н/о +26.6 +22.6 79 1007.9 998.0
05 18.09 0 н/о н/о +25.6 +22.6 84 1007.7 997.8
06 18.09 0 н/о н/о +25.2 +22.6 86 1007.4 997.4
07 18.09 0 н/о н/о +24.6 +22.7 89 1007.4 997.4
08 18.09 0 н/о н/о +24.7 +22.6 88 1007.8 997.8
09 18.09 0 н/о н/о +25.3 +22.6 85 1008.2 998.2
10 18.09 0 н/о н/о +26.5 +22.6 79 1008.9 999.0
11 18.09 0 н/о н/о +26.8 +22.8 79 1009.4 999.5
12 18.09 0 н/о н/о +27.5 +22.3 73 1010.3 1000.4
13 18.09 0 н/о н/о +29.0 +22.4 68 1010.6 1000.7
14 18.09 0 н/о н/о +31.2 +22.1 58 1010.5 1000.7
15 18.09 0 н/о н/о +33.0 +22.1 53 1010.0 1000.3
16 18.09 0 н/о н/о +33.8 +21.7 49 1009.3 999.6
17 18.09 0 н/о н/о +34.9 +22.4 48 1008.2 998.5
18 18.09 0 н/о н/о +34.8 +21.0 45 1007.0 997.4
19 18.09 0 н/о н/о +34.7 +20.5 44 1005.9 996.3
20 18.09 0 н/о н/о +35.1 +19.7 41 1004.9 995.3
21 18.09 0 н/о н/о +34.5 +20.0 43 1004.5 994.9
22 18.09 0 н/о н/о +33.5 +20.4 46 1005.0 995.3
23 18.09 0 н/о н/о +32.5 +21.3 52 1005.5 995.8
00 19.09 0 н/о н/о +29.7 +21.9 63 1006.1 996.3
01 19.09 0 н/о н/о +27.8 +22.8 74 1007.0 997.1
02 19.09 0 н/о н/о +30.0 +22.5 64 1007.5 997.7
03 19.09 0 н/о н/о +29.6 +22.5 66 1007.5 997.7
04 19.09 0 н/о н/о +29.0 +22.4 68 1007.4 997.6
05 19.09 0 н/о н/о +26.6 +22.6 79 1007.1 997.2
07 19.09 0 н/о н/о +25.3 +22.9 87 1006.8 996.9
08 19.09 0 н/о н/о +24.6 +22.7 89 1006.9 996.9
09 19.09 0 н/о н/о +24.5 +22.9 91 1007.5 997.5
11 19.09 0 н/о н/о +25.9 +23.7 88 1008.4 998.5
12 19.09 0 н/о н/о +28.9 +22.9 70 1009.2 999.3
13 19.09 0 н/о н/о +31.4 +22.2 58 1009.7 999.9
14 19.09 0 н/о н/о +32.5 +22.0 54 1009.9 1000.2
15 19.09 0 н/о н/о +34.2 +20.7 45 1009.7 1000.0
16 19.09 0 н/о н/о +35.5 +21.0 43 1008.7 999.1
17 19.09 0 н/о н/о +35.1 +20.0 41 1007.7 998.1
18 19.09 0 н/о н/о +35.6 +19.9 40 1006.2 996.6
19 19.09 0 н/о н/о +35.8 +19.4 38 1005.2 995.6
20 19.09 0 н/о н/о +33.4 +20.8 48 1004.9 995.2
21 19.09 0 н/о н/о +33.3 +20.8 48 1004.8 995.1
22 19.09 0 н/о н/о +33.0 +20.5 48 1005.5 995.8
23 19.09 0 н/о н/о +29.8 +22.2 64 1006.0 996.2
00 20.09 0 н/о н/о +27.9 +23.0 75 1006.9 997.0
01 20.09 0 н/о н/о +28.3 +23.0 73 1007.5 997.6
02 20.09 0 н/о н/о +28.8 +22.0 67 1007.7 997.9
03 20.09 0 н/о н/о +26.5 +22.8 80 1008.5 998.6
04 20.09 0 н/о н/о +26.8 +22.8 79 1008.5 998.6
05 20.09 0 н/о н/о +25.4 +22.6 85 1008.0 998.0
06 20.09 0 н/о н/о +25.4 +22.8 86 1007.8 997.8
07 20.09 0 н/о н/о +25.5 +22.8 85 1008.0 998.0
08 20.09 0 н/о н/о +24.2 +22.3 89 1008.5 998.5
09 20.09 0 н/о н/о +23.8 +22.1 90 1008.8 998.8
10 20.09 0 н/о н/о +23.6 +22.0 91 1009.2 999.2
12 20.09 0 н/о н/о +28.7 +22.4 69 1010.9 1001.0
15 20.09 0 н/о н/о +35.0 +20.5 43 1011.3 1001.6

 

Местоположение метеостанции Порту-Велью (Рондония, Бразилия): широта -8.80 долгота -63.85 высота над уровнем моря 100 м.

В архиве по умолчанию представлена погода в Порту-Велью за последнюю неделю. Архивные данные за месяц целиком и за предыдущие месяцы, начиная с января 2011 года, Вы можете получить, выбрав интересующий диапазон дат из раскрывающегося списка и нажав кнопку "Ввод!".


*Определитесь, кто Вы:
робот инопланетянин человек

Внимание! Время в таблицах - всемирное. Для получения местного времени необходимо прибавить поправку, которая равна -3 ч.

Смотрите также архив погоды в соседних городах и на ближайших метеорологических станциях:

Погода в Порту-Велью (Рондония, Бразилия) (7 км)
Погода в Арикемисе (Рондония, Бразилия) (161 км)
Погода в Умайте (Амазонас, Бразилия) (163 км)
Погода в Лабреа (Амазонас, Бразилия) (199 км)
Погода в Лабреа 2 (Амазонас, Бразилия) (203 км)
Погода в Риберальте (Боливия) (348 км)
Погода в Бока-ду-Акри (Амазонас, Бразилия) (383 км)
Погода в Какуале (Рондония, Бразилия) (396 км)
Погода в Маникоре (Амазонас, Бразилия) (435 км)
Погода в Маникоре (Амазонас, Бразилия) (438 км)

Пояснения к столбцам:

Ветер - указаны скорость ветра в м/с - средняя за 10 мин, порывы в срок и между сроками (в фигурных скобках) и направление, откуда дует ветер: С - северный, СВ - северо-восточный, В - восточный, ЮВ - юго-восточный, Ю - южный, ЮЗ - юго-западный, З - западный, СЗ - северо-западный.
Видимость - горизонтальная дальность видимости в метрах или километрах. При видимости от 1 до 10 км при отсутствии осадков обычно наблюдается дымка, при ухудшении видимости до 1 км и менее - туман. В сухую погоду видимость может ухудшаться дымом, пылью или мглою.
Явления - указаны атмосферные явления, наблюдавшиеся в срок или в последний час перед сроком; фигурными скобками обозначены явления, наблюдавшиеся между сроками (за 1-3 часа до срока); квадратными скобками обозначены град или гололедные отложения с указанием их диаметра в мм.
Облачность - указаны через наклонную черту общая и нижняя облачность в баллах и высота нижней границы облаков в метрах; квадратными скобками обозначены формы облаков: Ci - перистые, Cs - перисто-слоистые, Cc - перисто-кучевые, Ac - высококучевые, As - высокослоистые, Sc - слоисто-кучевые, Ns - слоисто-дождевые, Cu - кучевые, Cb - кучево-дождевые. Подробнее классификацию облаков см. в Атласе облаков (PDF).
T - Температура воздуха - температура, измеренная на высоте 2 м над землей.
Td - Температура точки росы - температура, при понижении до которой содержащийся в воздухе водяной пар достигнет насыщения.
f - Относительная влажность воздуха - влажноcть воздуха, измеренная на высоте 2 м над землей.
Te - Эффективная температура - температура, которую ощущает одетый по сезону человек в тени. Характеристика душности погоды. При расчете учитывается влияние влажности воздуха и скорости ветра на теплоощущения человека.
Tes - Эффективная температура на солнце - температура, которую ощущает человек, с поправкой на солнечный нагрев. Характеристика знойности погоды. Зависит от высоты солнца над горизонтом, облачности и скорости ветра. Ночью, в пасмурную погоду, а также при ветре 12 м/с и более поправка равна нулю.
P - Атмосферное давление - приведенное к уровню моря атмосферное давление.
Po - Атмосферное давление - измеренное на уровне метеостанции атмосферное давление.
Tmin - Минимальная температура - минимум температуры воздуха на высоте 2 м над землей.
Tmax - Максимальная температура - максимум температуры воздуха на высоте 2 м над землей.
R - Количество осадков - Количество выпавших осадков за период времени, мм. При наведении курсора мыши на число - период времени, за который выпало указанное количество осадков.
R24 - Количество осадков - Количество выпавших осадков за 24 часа, мм.
S - Снежный покров - Высота снежного покрова, см. При наведении курсора мыши на число - состояние снежного покрова и степень покрытия местности в баллах.